This is the latest recevied weather packets stored in our database for station/object KP4OZ. If no packets are shown the sender has not sent any weather packets the latest 10 day(s).
| Time | Temp. | Humidity | Pressure | Rain* | Wind** | Luminosity | Snow |
|---|---|---|---|---|---|---|---|
| 1777844820 | 31.11° C | 53% | 1015.3 hPa | 0 mm | - | - | - |
| 1777844516 | 31.11° C | 53% | 1015.3 hPa | 0 mm | - | - | - |
| 1777844215 | 31.67° C | 52% | 1015.2 hPa | 0 mm | - | - | - |
| 1777843911 | 31.67° C | 51% | 1015.2 hPa | 0 mm | - | - | - |
| 1777843609 | 31.67° C | 52% | 1015.2 hPa | 0 mm | - | - | - |
| 1777843306 | 31.67° C | 51% | 1015.3 hPa | 0 mm | - | - | - |
| 1777843004 | 31.67° C | 50% | 1015.1 hPa | 0 mm | - | - | - |
| 1777842699 | 31.67° C | 51% | 1015.3 hPa | 0 mm | - | - | - |
| 1777842395 | 31.67° C | 50% | 1015 hPa | 0 mm | - | - | - |
| 1777842092 | 31.67° C | 49% | 1015 hPa | 0 mm | - | - | - |
| 1777841788 | 32.22° C | 49% | 1015 hPa | 0 mm | - | - | - |
| 1777841485 | 32.22° C | 48% | 1014.8 hPa | 0 mm | - | - | - |
| 1777841181 | 32.22° C | 50% | 1015 hPa | 0 mm | - | - | - |
| 1777840879 | 32.22° C | 50% | 1014.9 hPa | 0 mm | - | - | - |
| 1777840576 | 31.67° C | 53% | 1014.9 hPa | 0 mm | - | - | - |
| 1777840273 | 31.67° C | 61% | 1014.9 hPa | 0 mm | - | - | - |
| 1777839971 | 31.11° C | 61% | 1014.8 hPa | 0 mm | - | - | - |
| 1777839668 | 31.11° C | 62% | 1015.1 hPa | 0 mm | - | - | - |
| 1777839366 | 31.11° C | 61% | 1015.1 hPa | 0 mm | - | - | - |
| 1777839063 | 31.11° C | 61% | 1015.1 hPa | 0 mm | - | - | - |
| 1777838760 | 31.67° C | 59% | 1015.2 hPa | 0 mm | - | - | - |
| 1777838456 | 31.11° C | 60% | 1015 hPa | 0 mm | - | - | - |
| 1777838153 | 31.67° C | 59% | 1015.2 hPa | 0 mm | - | - | - |
| 1777837850 | 31.11° C | 60% | 1015.3 hPa | 0 mm | - | - | - |
| 1777837547 | 31.67° C | 59% | 1015.3 hPa | 0 mm | - | - | - |
* Rain latest hour (hover to see other rain measurements)
** Current wind speed in m/s (hover to see current wind gust speed)